Location: Ferchesar
(52.6477°N, 12.4298°E)
Time: 18:32:40
(UTC+01:00)

A-11 Canister half - Pass Details

Date: 08 December 2021
Orbit: 1516 x 1684 km, 47.2° (Epoch: 22 January)

Event Time Altitude Azimuth Distance (km) Brightness Sun altitude
Rises 06:43:58 0° 231° (SW) 4,742 11.3 -11.9°
Reaches altitude 10° 06:47:06 10° 226° (SW) 3,782 10.8 -11.4°
Maximum altitude 06:56:14 50° 155° (SSE) 1,989 10.0 -10.2°
Drops below altitude 10° 07:05:42 10° 85° (E) 3,913 12.1 -8.9°
Sets 07:09:00 0° 80° (E) 4,917 12.6 -8.4°
